TimeCDT,TemperatureF,Dew PointF,Humidity,Sea Level PressureIn,VisibilityMPH,Wind Direction,Wind SpeedMPH,Gust SpeedMPH,PrecipitationIn,Events,Conditions,WindDirDegrees,DateUTC
12:53 AM,33.1,32.0,96,30.15,7.0,West,4.6,-,N/A,,Clear,270,2012-11-03 05:53:00
1:53 AM,33.1,30.9,92,30.17,8.0,NW,4.6,-,N/A,,Clear,310,2012-11-03 06:53:00
2:53 AM,30.9,28.9,92,30.19,8.0,WSW,3.5,-,N/A,,Clear,250,2012-11-03 07:53:00
3:53 AM,30.0,28.9,96,30.21,7.0,West,3.5,-,N/A,,Clear,280,2012-11-03 08:53:00
4:53 AM,28.9,28.0,96,30.22,7.0,Calm,Calm,-,N/A,,Clear,0,2012-11-03 09:53:00
5:53 AM,28.0,26.1,92,30.24,7.0,West,3.5,-,N/A,,Clear,270,2012-11-03 10:53:00
6:53 AM,28.9,27.0,92,30.25,7.0,NW,3.5,-,N/A,,Clear,310,2012-11-03 11:53:00
7:53 AM,27.0,26.1,96,30.25,7.0,WNW,3.5,-,N/A,,Clear,300,2012-11-03 12:53:00
8:53 AM,30.0,28.0,92,30.26,7.0,WNW,3.5,-,N/A,,Clear,300,2012-11-03 13:53:00
9:53 AM,43.0,37.0,80,30.26,10.0,NNW,8.1,-,N/A,,Clear,340,2012-11-03 14:53:00
10:53 AM,51.1,39.9,66,30.26,10.0,NW,8.1,-,N/A,,Clear,320,2012-11-03 15:53:00
11:53 AM,55.9,39.9,55,30.26,10.0,North,6.9,-,N/A,,Clear,10,2012-11-03 16:53:00
12:53 PM,59.0,39.0,48,30.25,10.0,NNE,5.8,-,N/A,,Clear,30,2012-11-03 17:53:00
1:53 PM,62.1,39.0,43,30.21,10.0,ENE,6.9,-,N/A,,Clear,60,2012-11-03 18:53:00
2:53 PM,61.0,37.0,41,30.19,10.0,SSW,3.5,-,N/A,,Clear,200,2012-11-03 19:53:00
3:53 PM,63.0,37.0,38,30.17,10.0,Calm,Calm,-,N/A,,Clear,0,2012-11-03 20:53:00
4:53 PM,63.0,36.0,37,30.17,10.0,ESE,4.6,-,N/A,,Clear,120,2012-11-03 21:53:00
5:53 PM,60.1,37.0,42,30.17,10.0,ESE,4.6,-,N/A,,Clear,120,2012-11-03 22:53:00
6:53 PM,52.0,36.0,54,30.19,10.0,ESE,3.5,-,N/A,,Clear,120,2012-11-03 23:53:00
7:53 PM,51.1,35.1,54,30.22,10.0,SSE,5.8,-,N/A,,Clear,160,2012-11-04 00:53:00
8:53 PM,46.9,35.1,63,30.22,10.0,South,4.6,-,N/A,,Clear,190,2012-11-04 01:53:00
9:53 PM,50.0,36.0,59,30.19,10.0,South,6.9,-,N/A,,Clear,180,2012-11-04 02:53:00
10:53 PM,46.0,36.0,68,30.19,10.0,South,4.6,-,N/A,,Clear,180,2012-11-04 03:53:00
11:53 PM,48.0,36.0,63,30.18,10.0,South,5.8,-,N/A,,Clear,180,2012-11-04 04:53:00